CAPE
0 0 0 0 0 0 0 0 0 0 0 0 0 0 0 0 0 1 0 0 0 0 6 11 15 31 25 10 10 12 7 11 13 36 27 16 14 20
0 0 0 0 0 0 0 0 0 0 0 0 0 0 0 0 0 0 0 0 0 1 9 24 33 25 7 16 9 12 37 36 27 39 42 25 30 37
0 0 0 0 0 0 0 0 0 0 0 0 0 0 0 0 0 0 0 0 0 1 27 24 32 26 15 11 5 17 22 26 44 49 48 44 39 44
0 0 0 0 0 0 0 0 0 0 0 0 0 0 0 0 0 0 0 0 14 16 12 16 6 0 2 3 9 21 26 30 36 35 39 28 16 40
0 0 0 0 0 0 0 0 0 0 0 8 6 0 0 0 0 0 0 0 2 2 1 0 0 0 3 13 16 12 16 26 31 37 36 39 26 28
0 0 0 0 0 0 0 1 2 0 1 1 0 4 1 1 3 1 0 0 0 1 0 0 4 6 18 10 2 8 11 17 26 25 21 7 21 25
0 0 0 0 1 2 4 0 1 0 7 29 13 18 6 0 0 0 0 0 0 0 0 0 11 4 0 0 0 0 3 5 4 17 25 33 23 24
0 0 0 0 0 7 7 14 10 12 16 20 3 0 0 0 0 0 0 11 8 5 7 5 1 0 0 0 4 7 8 12 2 2 5 20 24 20
0 0 0 0 1 0 1 20 18 37 31 15 3 1 2 0 1 16 5 2 6 2 0 1 0 1 1 2 1 10 10 5 6 11 8 12 8 8
0 0 0 0 4 19 12 10 12 12 0 3 1 1 4 8 1 0 0 1 1 0 0 1 1 1 0 0 1 2 1 4 17 16 12 18 13 16
0 0 6 4 14 14 15 13 0 0 0 0 30 21 1 0 0 0 0 4 0 2 0 1 0 0 0 0 0 0 0 5 14 25 11 8 17 9
0 0 3 8 8 41 19 4 0 0 0 1 0 0 0 0 3 1 0 0 0 0 0 0 0 0 0 0 0 0 0 0 1 4 21 1 0 1
0 0 0 0 55 11 11 0 0 10 0 0 0 0 0 0 0 0 0 0 0 0 0 0 0 0 0 0 0 0 0 0 0 1 0 2 2 0
1 0 1 38 7 1 0 3 6 3 0 0 0 0 0 0 0 0 0 0 0 0 0 0 0 0 0 0 0 0 0 0 0 0 1 1 1 3
4 24 10 0 0 0 0 0 0 0 0 0 1 0 0 0 0 0 0 0 0 0 0 0 0 0 0 1 0 0 1 0 0 0 0 2 2 2
14 0 0 0 0 0 0 0 0 0 0 0 0 0 0 0 0 0 0 0 0 0 0 0 0 1 0 0 0 0 0 0 0 0 0 0 0 0
2 0 0 0 0 0 0 0 0 0 0 0 0 0 0 0 0 0 0 0 0 0 0 0 0 0 0 0 0 0 0 0 0 0 0 1 1 1
0 0 0 1 1 0 0 0 0 0 0 0 0 0 0 0 0 0 0 0 0 0 0 0 0 0 0 0 0 0 0 0 0 0 0 1 1 1
0 0 1 0 0 0 0 0 0 0 0 0 0 0 0 0 0 0 0 0 0 0 0 0 0 0 0 0 0 0 0 0 0 1 0 1 1 1
0 1 0 0 0 0 0 0 0 0 0 0 0 0 0 0 0 0 0 0 0 0 0 0 0 0 0 0 0 0 0 0 0 0 0 0 0 2
0 0 0 0 0 0 0 0 0 0 0 0 0 0 0 0 0 0 0 1 0 0 0 0 0 1 0 0 0 0 0 0 1 0 0 1 0 1
0 0 0 0 0 0 0 0 0 0 0 0 1 1 0 1 0 0 0 0 0 0 0 0 0 0 0 0 0 0 0 1 1 1 1 1 0 0
0 0 0 0 0 0 0 0 0 0 1 0 1 1 1 0 0 0 0 0 0 0 0 0 0 0 0 0 0 0 0 0 1 1 1 1 1 1
CIN
-0 -0 -0 -0 -0 -0 -0 -0 -0 -0 -0 -0 -0 -0 -0 -0 -0 -0 -0 -0 -0 -1 -2 -2 -2 -3 -4 -3 -3 -4 -5 -5 -4 -2 -3 -3 -3 -2
-0 -0 -0 -0 -0 -0 -0 -0 -0 -0 -0 -0 -0 -0 -0 -0 -0 -0 -0 -0 -0 -1 -3 -3 -3 -2 -3 -3 -3 -4 -3 -4 -2 -3 -2 -3 -3 -3
-0 -0 -0 -0 -0 -0 -0 -0 -0 -0 -0 -0 -0 -0 -0 -0 -0 -0 -0 -0 -0 -0 -2 -3 -2 -2 -3 -4 -3 -2 -2 -4 -3 -3 -3 -2 -2 -1
-0 -0 -0 -0 -0 -0 -0 -0 -0 -0 -0 -0 -0 -0 -0 -0 -0 -0 -0 -0 -1 -2 -2 -4 -3 -4 -3 -2 -2 -4 -3 -2 -3 -2 -2 -3 -2 -2
-0 -0 -0 -0 -0 -0 -0 -0 -0 -0 -7 -1 -0 -0 -0 -0 -0 -1 -0 -0 -2 -1 -1 -0 -0 -2 -2 -2 -4 -5 -2 -2 -2 -2 -2 -2 -1 -1
-0 -0 -0 -0 -0 -0 -0 -1 -2 -1 -2 -4 -0 -2 -0 -2 -3 -0 -0 -0 -0 -0 -0 -1 -2 -1 -2 -2 -2 -2 -2 -2 -1 -2 -2 -2 -2 -1
-0 -0 -0 -0 -1 -1 -3 -8 -7 -5 -5 -0 -0 -2 -0 -0 -0 -0 -0 -0 -1 -0 -0 -0 -1 -4 -0 -0 -0 -1 -1 -1 -1 -1 -1 -1 -0 -0
-0 -0 -0 -0 -0 -1 -1 -3 -4 -3 -1 -0 -12 -0 -0 -1 -0 -0 -0 -3 -1 -2 -1 -1 -3 -0 -0 -0 -1 -2 -3 -2 -1 -2 -1 -1 -0 -1
-0 -0 -0 -0 -0 -0 -2 -2 -2 -1 -1 -1 -0 -1 -0 -0 -4 -3 -0 -0 -0 -1 -0 -0 -0 -1 -0 -0 -1 -1 -1 -1 -1 -1 -1 -1 -1 -2
-0 -0 -0 -2 -3 -3 -3 -1 -6 -0 -0 -2 -0 -5 -10 -6 -5 -1 -0 -0 -1 -0 -0 -0 -1 -1 -0 -0 -0 -1 -1 -3 -1 -1 -0 -0 -0 -1
-0 -0 -1 -1 -1 -6 -3 -4 -0 -0 -0 -0 -1 -1 -0 -2 -2 -7 -0 -0 -0 -0 -0 -0 -0 -0 -0 -0 -0 -0 -0 -1 -1 -0 -0 -3 -0 -1
-0 -0 -1 -2 -4 -2 -2 -4 -0 -0 -1 -7 -0 -0 -0 -0 -1 -0 -0 -0 -0 -0 -0 -0 -0 -0 -0 -0 -0 -0 -0 -0 -1 -2 -2 -3 -2 -1
-0 -0 -0 -0 -0 -4 -4 -0 -0 -6 -0 -0 -0 -0 -0 -0 -0 -0 -0 -0 -0 -0 -0 -0 -0 -0 -0 -0 -0 -0 -0 -0 -0 -0 -0 -0 -0 -0
-3 -0 -2 -0 -3 -3 -0 -2 -5 -3 -0 -0 -0 -0 -0 -0 -0 -0 -0 -0 -0 -0 -0 -0 -0 -0 -0 -0 -0 -0 -0 -0 -0 -0 -0 -0 -0 -0
-7 -1 -1 -2 -0 -0 -0 -0 -0 -0 -0 -0 -0 -0 -0 -0 -0 -0 -0 -0 -0 -0 -0 -0 -0 -0 -0 -0 -0 -0 -0 -0 -0 -0 -0 -0 -0 -0
-1 -0 -0 -0 -0 -0 -0 -0 -0 -0 -0 -0 -0 -0 -0 -0 -0 -0 -0 -0 -0 -0 -0 -0 -2 -2 -0 -0 -0 -0 -0 -0 -0 -0 -0 -0 -0 -0
-7 -0 -0 -0 -0 -0 -0 -0 -0 -0 -0 -0 -0 -0 -0 -0 -0 -0 -0 -0 -0 -0 -0 -0 -0 -0 -0 -0 -0 -0 -0 -0 -0 -0 -0 -0 -0 -0
-0 -0 -0 -0 -0 -0 -0 -0 -0 -0 -0 -0 -0 -0 -0 -0 -0 -0 -0 -0 -0 -0 -0 -0 -0 -0 -0 -0 -0 -0 -0 -0 -0 -0 -0 -0 -0 -0
-0 -0 -0 -0 -0 -0 -0 -0 -0 -0 -0 -0 -0 -0 -0 -0 -0 -0 -0 -0 -0 -0 -0 -0 -0 -0 -0 -0 -0 -0 -0 -0 -0 -0 -0 -0 -0 -0
-0 -0 -0 -0 -0 -0 -0 -0 -0 -0 -0 -0 -0 -0 -0 -0 -0 -0 -0 -0 -0 -0 -0 -0 -0 -0 -0 -0 -0 -0 -0 -0 -0 -0 -0 -0 -0 -0
-0 -0 -1 -0 -0 -0 -0 -0 -0 -0 -0 -0 -0 -0 -0 -0 -0 -0 -0 -0 -0 -0 -0 -0 -0 -0 -0 -0 -0 -0 -0 -0 -0 -0 -0 -0 -0 -0
-0 -0 -0 -0 -0 -0 -0 -0 -0 -0 -0 -0 -0 -0 -0 -0 -0 -0 -0 -0 -0 -0 -0 -0 -0 -0 -0 -0 -0 -0 -0 -0 -0 -0 -0 -0 -0 -0
-0 -0 -0 -0 -0 -0 -0 -0 -0 -0 -0 -0 -0 -0 -0 -0 -0 -0 -0 -0 -0 -0 -0 -0 -0 -0 -0 -0 -0 -0 -0 -0 -0 -0 -0 -0 -0 -0
Wind_Speed
42 40 43 45 43 43 45 47 53 68 69 61 59 50 49 50 50 49 51 53 55 55 53 54 54 51 52 54 56 58 57 58 59 60 62 64 67 67
40 44 45 46 46 45 45 45 47 53 66 60 59 54 53 50 48 49 49 52 51 52 52 51 51 48 52 55 59 59 56 56 56 58 61 64 63 64
42 45 48 48 47 47 47 46 47 47 56 60 55 54 55 55 54 51 49 48 48 49 47 49 47 52 55 61 59 55 55 56 57 57 58 58 60 61
46 47 50 49 49 47 47 48 47 48 50 56 56 55 55 55 54 55 51 48 45 44 46 47 52 58 59 57 55 54 55 55 56 57 58 60 60 59
45 48 51 50 50 49 48 48 48 47 47 49 54 52 53 51 54 51 49 50 44 46 49 51 53 55 53 52 51 53 56 56 56 56 56 57 57 56
46 48 49 49 49 49 49 48 47 50 50 51 51 50 52 49 48 53 55 50 49 45 45 47 49 48 47 49 54 51 51 51 52 53 54 54 53 53
47 47 47 46 49 47 47 50 50 49 49 49 54 49 50 55 53 49 49 48 46 45 44 43 40 37 42 44 43 44 45 45 48 49 51 52 53 52
49 50 48 47 46 47 49 49 46 48 52 49 46 50 52 48 45 42 40 43 50 39 38 40 38 40 38 35 36 40 41 47 53 51 52 51 50 51
49 49 49 46 47 47 48 48 48 46 44 46 48 46 44 39 35 31 37 35 33 32 24 29 34 30 33 31 41 30 23 46 50 49 49 50 52 54
48 48 47 48 48 49 50 48 45 41 41 39 36 35 30 26 25 23 33 33 23 26 24 31 27 24 19 16 26 27 31 31 41 51 52 49 51 52
48 46 47 48 48 50 48 45 43 38 32 31 30 22 24 24 25 22 25 38 25 28 26 25 23 22 20 21 17 20 20 20 15 27 47 47 47 49
47 46 45 47 46 44 45 41 39 29 28 24 24 27 30 23 18 15 19 22 21 22 16 22 23 24 24 11 9 8 10 21 30 32 37 43 45 46
46 46 44 43 40 51 33 37 19 30 30 34 31 23 15 14 16 14 14 15 16 16 18 17 17 18 16 21 9 14 13 17 19 25 30 36 42 47
44 43 40 41 53 29 28 22 30 27 25 15 17 19 18 16 14 13 13 12 11 13 15 12 8 12 19 21 21 15 15 14 15 18 23 30 37 44
42 40 41 44 32 26 20 24 22 16 12 16 18 17 15 15 13 11 10 10 9 8 8 7 7 9 12 15 17 15 17 15 13 14 17 23 31 38
40 39 42 34 14 19 13 13 12 10 16 17 15 14 13 12 12 10 11 10 10 10 8 6 11 10 11 12 13 14 14 10 12 13 13 15 20 30
45 39 31 16 17 12 13 13 12 12 13 12 13 13 12 12 12 10 9 10 8 10 10 11 12 13 10 12 11 10 9 8 7 7 7 5 5 11
39 32 17 18 12 18 22 20 15 17 13 14 12 12 12 13 12 11 9 8 8 9 9 4 8 7 6 11 13 7 5 4 4 2 2 3 4 2
24 18 16 11 15 14 13 16 17 16 15 12 13 12 12 12 12 11 9 7 7 7 6 2 2 3 7 7 6 6 4 4 7 7 7 7 9 7
11 15 11 14 12 12 13 13 13 13 12 12 14 14 15 13 12 10 10 8 7 6 4 3 2 3 8 9 9 2 10 3 5 6 8 9 9 12
15 10 13 11 11 12 11 11 11 11 13 14 12 19 23 23 19 20 16 14 11 3 4 2 3 4 5 8 4 3 6 13 11 6 7 11 12 17
13 15 12 11 10 10 10 10 10 10 11 11 10 10 15 28 28 24 21 18 16 7 3 3 2 4 2 2 2 3 4 7 12 15 14 11 10 14
13 10 9 10 10 10 9 10 10 10 10 9 9 7 7 6 24 27 24 20 18 13 8 5 4 4 2 4 4 2 5 5 8 11 14 17 17 19
Wind_Direction
335 334 333 331 329 327 325 322 319 316 315 318 318 322 321 320 319 319 316 313 311 309 307 305 302 300 299 298 295 292 289 285 283 281 278 276 274 270
337 334 333 332 329 327 325 323 320 317 313 318 318 320 320 319 319 318 316 314 312 310 308 305 303 300 300 297 295 291 289 286 284 281 278 276 273 270
337 334 332 331 329 327 325 324 321 319 315 316 317 319 318 317 317 317 316 315 312 311 309 307 304 301 299 296 293 292 289 287 284 282 279 277 274 271
335 334 332 331 329 328 326 324 322 320 317 315 317 319 318 318 317 316 316 317 315 314 311 308 304 300 298 295 293 292 289 286 284 281 278 276 273 271
335 334 333 331 329 328 327 324 323 322 321 319 318 318 319 320 318 319 318 317 314 313 309 306 304 300 297 295 293 292 289 285 283 281 277 275 271 269
335 334 333 331 330 329 327 326 326 323 321 319 318 320 320 323 322 319 318 317 315 315 312 309 306 303 300 299 295 294 291 288 284 281 276 272 270 269
334 334 334 332 331 330 329 327 325 323 322 322 320 321 323 322 321 322 321 321 318 317 314 313 312 311 308 305 302 298 294 290 286 281 277 271 268 267
333 333 332 332 331 329 328 326 325 325 323 321 321 323 322 324 325 325 324 324 319 326 323 318 317 313 312 311 308 303 297 290 283 281 276 271 268 266
333 333 332 332 331 330 328 326 325 324 324 324 322 323 325 328 326 328 329 328 326 328 318 277 323 318 317 315 293 258 265 261 268 278 276 272 267 262
335 334 333 333 332 330 329 329 329 331 330 330 328 328 327 327 323 306 284 281 311 324 323 275 324 272 280 280 261 259 258 256 254 263 268 272 264 258
337 337 335 334 333 333 333 334 336 338 339 336 334 325 295 316 324 301 323 288 290 329 328 274 276 272 269 267 272 261 256 252 260 246 264 262 256 251
339 339 338 337 337 338 339 341 341 340 344 342 342 340 340 336 317 311 288 285 286 287 302 277 273 270 269 297 277 279 279 255 252 247 245 249 245 242
341 341 342 341 343 335 332 345 327 295 295 347 346 346 326 304 297 296 294 289 292 293 290 286 277 270 259 263 271 253 254 252 241 243 238 237 233 229
343 343 344 345 330 316 348 299 297 307 352 334 301 296 299 303 309 311 310 314 309 294 289 290 299 272 265 261 259 254 258 251 233 228 232 232 230 224
345 346 347 345 353 358 297 298 301 307 315 298 298 300 306 308 319 334 331 334 322 319 317 306 295 270 253 241 245 252 272 266 233 232 235 230 224 218
349 350 347 354 344 297 320 334 317 316 298 299 304 311 318 329 323 321 316 327 336 339 323 307 276 248 240 218 225 242 263 239 258 250 245 231 224 216
347 351 360 351 301 340 338 309 313 309 308 314 315 319 320 325 322 324 332 330 340 340 353 303 294 271 205 181 200 231 255 256 243 250 238 269 246 221
352 359 304 298 317 303 301 302 306 305 310 310 316 318 318 318 322 323 332 349 353 344 23 358 301 296 197 171 170 217 233 216 191 194 200 48 66 225
8 299 298 318 303 303 306 303 302 305 306 312 312 315 314 313 314 317 332 343 349 346 34 34 272 186 163 161 169 337 182 154 133 84 76 84 87 81
322 299 317 300 307 309 310 309 311 313 316 324 312 306 303 303 306 307 310 322 335 339 347 78 256 206 167 162 159 130 17 85 122 87 68 81 91 73
300 317 301 304 304 311 316 319 323 324 312 310 316 303 303 301 296 299 297 302 310 329 329 339 170 257 219 180 160 41 25 29 39 69 99 73 81 69
303 297 300 303 322 333 331 330 329 324 322 325 327 331 306 310 311 307 304 302 304 289 165 178 236 185 312 347 29 31 35 32 39 51 59 77 116 94
298 304 315 315 318 316 320 323 322 320 321 333 347 340 344 332 310 321 316 311 308 300 277 229 212 301 254 339 9 18 35 47 59 69 63 60 69 71